Volver al catálogo

STARLINK-30771

ActivoComunicacionesVLEO
NORAD 58169·PAYLOAD·🇺🇸 United States

Lanzado Oct 29, 2023 desde Vandenberg Space Force Base

Loading…

Próximos Pases (próximas 24 horas)

TLE

ActualizadoSource: CelesTrak SupGP

Época: Sep 15, 2026, 03:09 UTC

1 58169C 23166V   26258.13173611 -.00027241  00000+0 -80493-3 0  2585
2 58169  53.1598  59.1105 0001203  90.0199 200.8935 15.34401220    17

Sigue STARLINK-30771 en tiempo real con AllMySat

Download on the App Store